Wind_Speed
12 3 4 6 7 10 12 11 10 12 14 15 13 11 10 9 8 10 8 8 9 6 6 9 12 14 13 10 13 21 24 22 21 20 20 21 23 24 22 22 25 24 23 21 20 20 21 19 18 20 21 20 19 17 17 19 17 15 15 15 15 14 12 11 11 10 9 9 8 8 7 6 6 5 6 7 5 4 4 6 7 8 9 10 11 12
11 5 6 9 11 14 15 13 9 8 11 16 13 10 10 8 8 13 11 9 11 6 5 9 11 13 13 11 13 18 18 18 22 21 21 23 22 23 23 22 24 24 22 22 21 19 21 20 18 18 21 21 19 17 17 17 16 15 15 16 15 13 12 10 9 8 7 7 7 7 6 6 4 2 3 4 2 2 4 6 7 9 9 9 9 10
7 6 9 12 13 14 15 14 11 10 10 12 10 7 8 7 8 12 12 12 11 5 6 10 9 10 12 12 13 15 14 19 28 27 25 27 23 23 25 23 24 24 22 23 23 21 21 21 19 18 20 20 18 17 17 17 16 16 16 15 14 14 12 10 9 7 6 6 6 7 7 4 3 2 2 2 2 3 4 4 5 6 6 6 8 8
5 7 11 14 14 14 15 14 12 10 10 7 6 5 6 9 9 8 11 14 12 7 9 12 8 7 10 10 11 16 19 21 28 31 30 31 28 26 28 27 27 26 24 25 25 24 22 21 20 20 21 21 19 19 18 18 18 17 17 15 15 15 13 11 10 8 7 7 7 8 6 3 3 4 3 4 4 3 1 0 1 0 1 4 5 5
6 8 13 15 15 15 14 12 10 8 6 6 6 5 5 10 11 9 10 12 11 9 11 12 6 4 8 9 8 14 19 21 27 31 30 32 31 29 28 28 29 28 26 27 26 25 24 23 23 22 22 22 21 21 20 19 19 17 18 17 16 15 14 12 11 10 9 9 9 8 7 7 8 9 9 9 9 8 6 4 4 2 2 4 6 8
8 12 17 15 14 15 12 9 10 7 5 6 8 8 5 6 5 11 15 11 7 6 9 13 7 3 6 9 9 9 12 15 20 25 27 31 31 30 29 29 29 29 28 29 27 27 26 26 26 25 23 23 21 22 20 19 19 18 18 18 17 16 15 13 11 11 10 9 9 8 8 9 10 11 13 13 13 13 12 12 11 9 9 10 12 13
7 13 16 14 14 15 12 9 9 10 6 5 6 7 5 6 5 9 18 11 5 5 9 14 9 2 4 5 9 9 8 10 13 17 24 31 32 32 32 32 32 31 31 31 29 29 29 29 29 27 25 24 22 22 21 20 20 19 19 19 18 17 15 14 13 12 10 9 9 9 8 10 12 12 12 13 13 12 12 12 11 10 11 12 12 10
8 14 15 15 14 11 10 8 8 11 8 5 6 7 6 7 8 10 16 9 6 6 9 13 9 4 4 7 9 10 8 7 8 11 19 29 33 35 34 35 36 35 34 34 32 31 30 30 31 29 27 26 24 23 22 22 21 20 20 20 19 17 16 15 13 11 10 9 10 10 10 10 11 11 10 10 9 7 8 9 10 10 12 12 9 7
9 12 14 15 13 7 7 9 10 11 8 6 8 6 5 9 10 9 11 6 4 4 5 10 9 5 4 6 5 8 9 8 9 10 14 23 32 35 35 37 39 37 37 36 34 33 32 31 31 29 29 28 26 24 23 23 22 21 21 20 19 19 17 15 13 11 10 10 10 10 9 9 9 9 10 9 7 6 8 10 12 13 12 10 8 7
10 15 16 14 11 7 7 9 10 8 6 6 9 7 6 8 7 3 6 3 2 2 4 7 8 5 2 4 6 7 8 10 12 10 10 20 32 35 35 39 39 38 39 38 36 36 35 34 31 29 31 31 28 25 23 24 23 22 22 22 20 20 17 15 13 13 12 10 8 8 8 8 7 8 9 8 8 9 10 11 11 10 10 9 7 6
12 19 20 11 9 10 11 12 11 8 7 6 6 6 8 6 3 1 3 5 4 0 5 6 5 5 3 5 8 9 12 16 13 10 11 18 30 35 35 39 40 39 41 40 37 37 35 34 32 29 32 33 29 27 25 25 25 24 24 24 23 21 19 17 15 13 12 9 7 6 6 7 8 8 8 7 7 7 8 8 8 8 9 9 8 7
12 14 12 8 11 15 13 12 10 9 8 6 5 4 4 4 1 0 2 4 3 3 6 5 5 4 4 5 9 13 18 20 15 14 15 16 25 33 34 37 41 41 42 41 39 39 37 36 35 33 34 34 31 30 29 29 29 27 26 26 25 23 21 19 17 14 12 9 7 5 4 6 7 7 6 7 7 8 8 8 9 10 10 7 7 7
11 9 6 8 14 17 12 8 6 5 5 6 5 4 4 2 2 1 3 3 1 4 5 4 6 5 5 7 15 19 18 17 19 22 22 21 25 32 34 35 40 43 44 42 42 41 40 40 40 38 37 36 34 34 34 32 32 30 28 28 27 25 23 20 18 15 12 10 8 5 4 5 5 5 5 5 6 7 8 8 9 9 8 6 6 5
7 9 9 9 9 11 10 5 4 4 5 6 5 4 5 3 2 1 1 1 3 4 5 6 6 5 5 5 15 22 20 21 26 28 28 30 31 34 36 35 38 44 45 44 43 43 44 44 43 41 39 38 37 37 36 35 34 32 31 30 28 26 24 21 19 16 13 11 8 6 5 5 5 5 5 4 5 6 6 6 7 7 7 7 7 7
7 7 9 9 6 8 7 6 6 6 6 7 6 5 4 3 4 3 3 4 4 5 5 7 6 4 5 6 8 17 22 23 25 26 30 36 37 35 35 33 36 43 45 44 43 43 45 46 44 42 41 41 40 38 38 37 35 34 32 31 30 28 26 23 20 17 14 11 9 8 7 6 5 5 4 4 5 6 5 5 5 5 6 6 6 6
7 6 9 10 9 13 10 9 9 8 7 6 6 5 4 4 4 3 5 6 5 4 4 4 4 4 6 6 2 10 16 20 22 23 27 32 32 31 32 32 34 41 45 44 43 42 45 46 45 44 42 42 42 41 40 39 37 35 34 32 31 30 27 24 21 18 15 12 10 9 8 7 6 5 3 3 5 6 6 5 4 4 5 5 4 5
6 5 11 14 9 13 15 13 11 9 5 2 5 6 5 5 3 3 4 5 4 4 3 3 3 2 1 3 2 11 14 15 17 16 19 28 31 30 33 36 36 38 43 45 44 42 44 46 46 45 45 44 44 43 42 40 39 37 35 34 33 31 28 25 22 19 16 13 11 10 9 8 7 4 3 4 5 5 5 4 4 5 4 2 3 5
5 4 8 16 9 12 19 16 13 11 8 3 4 7 5 6 4 2 1 3 3 3 3 4 5 4 2 3 3 10 15 16 13 10 15 25 30 29 32 37 37 36 42 46 45 43 44 46 47 46 46 46 45 45 44 42 41 38 37 35 34 32 30 26 23 20 18 15 12 11 10 9 7 5 4 5 5 4 5 7 7 5 3 3 6 7
6 4 4 15 13 11 16 14 10 10 13 9 5 8 7 4 4 3 2 3 4 2 2 3 5 4 4 4 4 9 14 15 10 9 13 17 23 26 28 34 36 34 38 44 44 44 44 45 47 47 47 47 46 46 45 43 42 40 38 36 34 32 29 26 24 22 20 17 14 12 10 9 7 6 5 6 6 7 9 9 6 2 1 3 5 7
6 4 3 12 16 10 10 9 6 6 10 9 5 5 7 5 4 5 4 4 4 3 1 4 5 2 4 4 8 11 12 12 9 8 10 14 23 29 29 33 37 36 38 43 44 45 44 45 47 48 47 47 47 46 46 44 42 41 39 37 35 32 29 27 25 24 22 18 15 13 11 9 7 6 7 7 8 8 9 7 3 1 0 2 3 4
6 4 3 7 13 10 6 7 7 5 6 6 5 5 5 4 4 4 3 3 4 4 3 1 3 3 6 2 7 9 8 10 10 8 8 13 21 28 31 35 37 37 39 42 44 45 45 44 46 47 46 46 46 45 45 44 43 42 40 38 37 34 31 29 27 25 23 20 17 14 12 10 8 7 8 8 8 9 8 6 4 2 1 3 4 5
5 4 4 6 9 7 5 9 11 8 6 6 5 5 5 4 5 4 3 3 3 4 4 4 2 3 6 2 6 8 7 8 10 9 7 14 20 23 30 33 34 36 38 40 43 44 44 44 44 46 46 45 45 45 46 45 44 42 41 40 38 36 33 31 29 27 24 21 18 14 12 10 9 7 8 8 9 8 7 7 6 3 5 5 6 8
8 4 5 6 8 8 8 13 15 12 10 7 5 5 4 3 3 4 4 4 3 3 4 4 4 3 7 1 6 7 9 10 12 13 8 11 19 22 29 33 33 36 38 38 39 39 41 43 43 44 45 45 46 46 46 45 44 44 43 41 40 37 35 33 30 28 26 22 18 14 12 11 10 8 8 9 10 8 6 6 5 4 7 8 9 10
10 4 4 4 5 8 9 11 16 16 11 7 5 6 6 6 5 4 4 5 4 3 4 3 3 3 8 2 6 8 11 13 14 14 12 12 18 22 29 31 31 35 36 35 37 37 38 41 42 43 44 45 46 47 47 46 45 44 43 42 41 39 37 35 33 30 27 22 18 15 12 11 10 7 7 9 10 7 6 5 4 5 8 9 9 10
8 4 4 3 3 7 7 6 9 13 10 5 4 6 8 10 10 6 1 3 3 5 6 5 3 4 6 2 6 8 8 10 10 10 11 15 17 19 26 29 29 33 35 35 38 38 38 39 40 42 44 45 46 47 47 47 45 44 44 43 42 40 38 37 34 32 28 23 19 16 13 12 10 6 7 10 10 9 8 6 5 6 8 8 8 9
8 5 5 6 4 7 7 5 5 7 6 5 5 7 8 8 9 6 2 3 3 6 6 6 4 5 6 2 6 8 7 6 8 11 14 18 17 14 18 23 25 32 36 37 38 38 39 39 40 42 44 46 48 47 47 47 46 45 44 43 41 40 39 38 35 32 29 24 19 16 14 12 10 7 8 11 12 11 11 9 9 10 11 11 12 12
4 4 6 7 7 8 7 7 8 8 6 6 9 11 10 8 6 5 5 4 4 5 5 6 10 8 6 6 7 7 8 7 7 10 15 19 17 13 15 18 22 28 33 34 35 36 38 40 40 42 44 47 48 48 48 48 46 46 45 43 41 39 38 37 34 32 29 24 19 17 15 12 9 8 9 12 12 11 11 11 12 14 14 14 15 16
3 4 8 8 8 9 6 5 7 10 9 7 10 13 13 12 10 5 6 7 7 7 5 8 14 13 10 11 10 9 10 8 7 11 17 20 20 19 19 18 19 23 27 31 33 35 36 38 40 42 44 46 47 47 47 47 47 46 45 43 41 38 37 35 34 33 29 24 19 16 14 11 9 10 10 12 12 11 10 11 12 14 14 15 16 17
3 4 9 9 10 10 8 7 6 7 9 8 8 12 15 16 15 10 7 6 8 8 6 9 15 16 13 12 11 10 11 10 11 14 17 16 15 14 17 19 19 20 25 29 30 30 31 33 38 42 44 46 47 47 47 46 47 46 45 43 41 37 36 36 35 35 31 25 19 14 11 10 11 12 12 13 13 12 13 13 14 14 14 13 13 14
2 2 5 6 6 7 8 7 6 5 8 10 9 9 10 14 14 12 11 8 7 8 7 9 13 12 11 12 12 13 15 18 19 19 18 15 12 11 12 15 16 17 23 28 29 28 29 31 34 39 44 47 47 48 47 46 47 47 45 44 41 38 38 38 36 35 33 27 19 12 9 11 14 16 16 16 16 14 15 15 15 13 12 11 11 11
2 3 2 3 3 2 3 4 8 10 8 6 7 8 6 7 8 8 8 8 8 8 7 10 11 9 7 9 11 14 20 21 19 18 18 14 11 10 8 7 7 8 12 18 25 29 30 31 34 37 42 46 47 47 47 46 47 45 42 41 40 39 40 39 37 36 34 29 18 10 8 13 17 19 19 19 19 17 16 15 13 12 11 11 12 12
4 2 1 4 2 2 3 5 11 14 12 9 9 10 9 7 6 5 5 6 7 9 8 9 8 8 7 7 9 13 16 14 11 13 15 12 8 7 5 3 1 4 6 9 14 23 31 34 36 37 39 42 44 45 45 45 42 38 36 37 38 39 40 40 38 36 34 28 18 9 9 15 20 23 23 23 22 19 17 14 12 12 12 12 12 13
6 3 2 4 3 1 3 8 10 9 11 10 8 7 6 4 3 5 6 6 5 6 8 7 6 6 5 7 8 9 10 9 10 13 15 13 10 7 5 3 5 7 9 12 13 14 22 31 36 37 37 38 40 43 42 41 40 38 40 42 43 44 43 40 38 36 32 26 16 11 13 19 24 26 25 24 22 19 16 15 13 13 13 13 13 14
5 5 3 3 3 1 4 7 9 5 4 5 2 1 3 5 7 7 6 6 7 6 1 4 4 4 7 8 8 8 11 12 13 13 12 10 7 4 3 4 5 6 9 13 15 14 16 23 29 33 36 36 36 39 39 39 41 42 44 46 47 48 47 44 41 37 31 24 18 18 19 23 25 25 23 21 19 17 15 15 14 14 14 14 14 15
4 5 3 3 3 1 3 4 4 5 4 2 4 5 5 7 8 8 7 4 9 10 8 8 8 8 8 9 11 14 14 12 12 12 11 8 5 2 3 6 7 8 11 14 16 16 15 16 20 25 32 34 33 35 37 40 44 44 42 44 45 45 44 41 39 34 28 23 22 23 25 27 25 23 21 19 18 16 15 15 15 15 15 15 16 16
4 4 2 2 3 2 2 3 1 5 4 3 6 6 5 6 7 7 6 4 6 7 6 5 7 7 7 10 14 15 14 13 14 12 10 6 4 8 13 16 12 10 12 13 15 16 15 15 18 20 26 30 31 33 35 39 42 40 39 43 43 41 38 34 32 29 24 24 25 25 29 29 25 23 22 20 18 18 17 17 17 16 15 17 17 17
3 2 3 2 2 3 2 1 1 4 5 3 2 2 3 3 2 4 2 4 2 3 6 7 7 7 8 12 15 17 16 15 13 10 8 4 10 16 13 16 13 8 9 10 9 9 12 13 12 14 23 29 32 35 38 41 43 40 40 42 41 40 38 34 32 28 24 26 27 30 32 29 25 23 22 21 20 20 20 20 19 18 17 17 18 17
1 1 2 2 3 2 2 1 1 3 5 3 3 1 2 3 4 3 3 4 5 5 3 6 8 6 8 12 15 16 14 10 5 6 10 9 12 15 6 9 10 8 9 7 3 3 6 7 3 8 17 22 26 28 30 33 35 36 38 39 39 39 37 36 34 29 25 27 30 32 33 30 25 23 22 22 22 22 22 22 22 20 18 17 17 17
6 5 5 2 1 2 1 1 1 2 3 2 3 3 1 5 4 4 4 5 5 7 7 4 6 6 9 13 13 11 10 5 3 2 11 14 14 13 7 5 8 5 3 3 2 2 5 6 3 5 11 17 21 23 22 21 22 25 29 31 30 30 32 32 30 26 26 29 31 33 33 31 27 25 24 24 25 24 24 24 23 20 17 14 15 16
3 4 4 4 4 4 3 3 2 2 3 2 3 3 4 6 2 3 1 6 6 8 10 11 10 8 13 16 13 9 6 4 5 4 12 14 15 16 11 2 8 5 3 4 1 4 6 8 5 3 9 14 20 23 23 24 25 25 24 23 22 25 29 30 27 26 28 30 33 35 35 32 29 27 26 27 28 27 26 25 23 19 16 14 15 15
2 3 1 2 3 4 6 5 3 2 2 3 6 7 9 7 2 3 5 6 6 13 17 21 20 17 17 16 12 8 7 8 9 13 15 13 13 16 12 3 4 4 2 2 1 5 7 7 6 3 5 8 14 18 22 25 28 26 22 20 22 25 27 26 24 25 29 31 33 34 33 30 28 27 26 26 26 25 25 23 21 19 16 15 16 16
2 2 2 1 2 1 2 3 2 2 2 4 8 11 11 5 2 4 2 3 11 16 21 26 25 21 20 19 17 15 15 15 16 16 16 15 14 15 15 12 5 3 5 4 7 10 9 6 3 2 4 5 8 12 17 22 22 17 13 14 17 19 20 20 23 27 30 31 32 31 28 27 26 25 24 25 25 25 24 22 20 18 17 16 16 15
1 0 1 1 1 1 3 2 1 3 6 4 4 9 8 1 4 2 4 10 17 20 22 27 27 24 22 22 20 18 17 17 17 16 15 15 15 14 13 13 7 3 7 8 8 8 6 5 5 5 5 6 7 9 14 19 17 12 10 12 14 15 16 18 22 27 29 29 29 27 25 25 25 25 25 24 25 25 24 21 19 17 15 15 15 17
5 3 1 0 1 2 1 0 2 4 8 0 6 3 3 5 3 6 8 11 17 21 21 23 24 22 21 21 20 18 17 16 16 15 14 14 14 12 9 7 4 4 6 7 8 6 4 5 7 9 8 8 8 11 14 16 15 12 11 13 14 15 16 17 18 22 27 28 27 27 26 25 25 26 25 24 25 24 22 20 17 15 14 14 17 19
2 3 3 1 2 2 3 3 4 4 13 13 13 13 13 14 12 14 16 16 18 20 19 19 21 19 18 18 18 17 16 16 14 13 14 14 15 13 9 5 7 7 6 7 8 7 6 6 11 14 12 11 11 13 16 16 15 14 15 15 15 16 18 17 16 18 20 21 21 22 22 21 22 23 24 23 23 21 19 18 18 17 16 17 18 16
3 4 5 1 4 3 5 7 6 6 13 20 19 17 19 21 19 19 21 20 21 21 18 17 18 17 16 17 17 16 15 14 12 12 12 13 13 12 8 6 9 8 7 7 9 10 10 11 16 18 17 16 15 17 18 17 16 17 17 14 13 14 14 12 11 12 13 14 14 16 16 16 18 20 22 22 21 19 19 18 18 19 20 18 14 13
5 9 7 2 2 1 3 10 8 7 11 16 20 21 21 20 19 20 21 20 19 19 17 15 14 15 15 14 13 13 11 9 8 8 8 8 8 7 5 7 9 9 10 9 12 16 18 20 22 21 20 21 20 21 22 21 21 21 17 11 7 7 7 7 9 10 10 10 11 12 12 12 15 17 20 21 21 19 19 19 20 21 20 15 13 14
3 6 5 2 1 3 2 5 7 13 18 17 18 20 18 17 17 18 19 19 17 16 16 14 11 13 15 12 9 9 10 9 8 7 6 6 6 6 6 8 10 11 11 13 17 21 23 24 24 23 24 26 25 23 22 22 22 20 14 8 5 6 9 11 11 8 6 6 7 8 9 11 14 16 18 19 19 18 17 17 17 16 15 14 15 15
3 5 3 1 2 3 3 5 9 11 14 16 17 16 15 14 15 15 15 16 16 16 16 14 11 11 12 11 7 7 9 9 8 8 7 7 6 5 7 8 10 12 14 16 19 21 22 23 24 25 24 23 21 17 15 13 14 12 10 8 9 10 10 10 9 7 6 7 8 8 9 12 14 16 18 18 17 15 13 12 12 12 13 14 15 16
4 5 4 3 2 1 1 2 1 1 2 7 12 14 12 10 11 12 12 13 15 16 15 14 13 11 9 8 7 7 8 9 8 7 7 7 6 7 8 9 11 12 13 16 18 19 20 22 23 22 20 17 15 12 10 10 11 9 7 9 11 11 8 6 6 6 6 6 7 7 8 10 12 13 14 14 13 12 12 12 12 12 13 14 16 16
4 5 5 5 4 4 4 6 7 7 3 4 9 11 9 7 6 9 12 13 13 14 14 13 13 12 9 7 7 8 8 8 8 7 7 6 5 7 9 10 11 12 12 15 18 19 20 20 20 20 18 15 12 10 9 12 12 6 8 11 11 9 7 5 4 3 2 4 7 8 9 11 13 13 13 13 14 14 14 13 13 14 15 16 16 15
Wind_Direction
220 238 203 215 239 245 253 244 207 186 167 160 182 199 190 184 180 188 190 170 161 148 152 151 141 146 156 163 168 167 161 158 159 158 160 162 161 164 169 171 174 178 182 184 186 187 187 191 193 187 186 190 195 197 195 198 202 201 197 194 194 196 193 189 194 205 205 201 212 222 232 251 260 265 264 262 270 280 287 290 296 308 317 312 305 301
205 230 225 217 232 241 254 256 243 228 182 173 189 197 185 186 182 182 180 166 166 162 138 139 138 150 159 163 171 170 161 157 161 162 165 166 165 170 173 174 174 175 182 185 186 188 187 191 194 187 188 191 192 192 189 190 192 190 191 190 186 189 191 188 192 199 198 204 219 229 243 260 260 281 284 261 256 291 296 301 306 315 317 305 299 298
197 227 222 219 233 235 249 257 248 248 222 196 196 188 184 187 176 177 178 167 162 148 134 145 145 154 162 162 169 174 165 163 167 167 169 170 171 175 175 178 176 173 181 184 183 189 191 192 191 185 184 185 186 187 183 183 182 179 183 183 180 188 195 196 198 195 194 209 219 226 237 241 240 288 301 217 240 291 292 295 303 310 305 300 302 301
193 222 218 219 232 232 242 250 241 246 245 231 209 183 184 185 176 177 179 165 155 158 157 153 146 152 165 163 168 176 171 165 166 169 172 175 178 179 179 183 182 177 181 184 186 190 192 190 188 189 187 184 187 188 185 183 179 176 179 180 179 187 197 198 196 198 201 203 208 218 220 183 191 228 193 186 234 252 215 46 324 323 300 308 305 292
206 207 217 223 230 231 236 236 235 250 261 275 266 233 187 183 180 162 162 157 151 171 163 144 135 163 172 168 173 179 171 165 166 168 171 176 180 180 180 182 182 183 183 186 188 189 190 188 188 195 191 187 190 188 185 181 177 176 175 177 181 185 190 190 189 196 203 205 209 214 203 188 197 208 212 226 235 222 216 248 264 263 278 281 272 271
219 203 212 225 232 235 240 228 221 235 264 284 271 253 208 199 197 146 152 156 148 188 176 144 141 232 207 177 178 181 171 171 169 164 167 175 178 178 179 179 181 185 186 187 188 187 189 187 190 197 192 192 193 185 183 181 176 176 174 175 182 185 185 188 192 195 203 212 216 218 209 204 211 218 226 236 238 236 246 259 259 258 264 268 274 281
221 207 210 225 228 228 240 237 212 206 231 264 244 249 249 268 289 150 156 165 163 197 183 156 151 220 254 205 189 181 169 177 172 161 166 174 177 178 179 179 180 183 185 188 188 188 191 190 192 196 193 195 195 184 180 179 178 177 177 179 183 186 188 191 196 197 205 213 210 216 217 213 219 225 233 238 242 249 258 264 263 265 272 275 282 289
216 209 207 226 231 224 226 236 222 199 207 257 236 226 223 252 264 180 170 186 182 184 183 168 147 122 213 222 195 169 156 173 183 171 169 173 177 179 181 181 181 184 185 186 187 189 192 193 195 196 193 195 196 187 181 181 181 180 183 185 183 188 194 195 198 200 206 210 211 222 224 220 222 222 226 235 243 248 250 262 278 286 286 287 294 295
217 219 204 212 228 236 220 221 228 202 192 240 246 233 213 231 244 190 173 202 191 170 201 183 141 105 218 216 167 155 165 189 202 195 179 174 177 180 182 181 181 185 187 186 186 188 191 195 199 196 190 195 199 192 185 186 185 184 189 191 188 194 199 198 199 201 208 212 219 232 233 229 226 215 218 231 237 232 235 255 273 281 283 288 301 307
210 228 219 207 209 230 243 234 229 196 176 234 252 274 274 238 242 192 155 160 88 105 236 213 164 143 225 191 158 166 187 202 204 202 189 178 178 180 181 180 181 184 185 185 187 188 191 195 200 195 190 196 200 195 191 191 190 189 192 195 197 201 203 203 204 207 211 216 223 235 236 229 222 216 227 240 240 237 244 255 265 268 271 280 292 299
216 220 226 223 191 200 231 241 231 200 182 218 242 268 284 266 253 258 160 112 75 67 253 248 203 176 193 190 181 184 196 200 194 192 198 187 182 181 180 179 180 181 183 184 187 190 192 195 197 194 191 196 199 197 195 194 195 197 197 197 201 203 204 206 210 212 214 217 224 228 222 215 215 223 236 242 239 241 250 257 258 258 265 274 271 263
239 219 219 227 201 196 217 236 223 199 194 205 209 211 254 295 353 17 356 58 95 244 250 267 273 228 206 208 201 202 203 195 183 185 195 190 182 182 181 179 179 181 183 184 187 190 191 192 193 192 193 196 197 196 196 196 198 201 201 201 202 204 205 208 212 215 215 216 220 215 205 213 220 229 234 230 228 230 237 245 250 259 267 270 260 256
245 235 208 217 215 200 203 227 207 193 214 213 204 182 185 291 17 53 342 3 204 240 236 251 281 254 225 203 197 206 208 192 186 191 191 185 179 180 182 180 178 181 183 184 186 189 189 189 191 190 191 194 195 195 196 197 200 203 205 205 205 206 206 208 213 214 215 221 221 207 209 227 227 226 228 221 218 225 235 245 255 264 261 250 248 251
237 249 218 211 218 197 190 198 181 196 227 217 203 173 153 129 85 151 221 261 260 273 256 250 261 257 274 239 193 198 206 197 192 191 186 186 184 182 184 181 178 181 183 184 186 188 189 188 189 189 190 193 194 195 196 198 203 206 207 208 208 208 207 210 213 212 217 228 224 213 222 236 236 227 223 212 209 221 237 257 267 268 257 248 245 240
213 237 222 214 190 174 196 202 179 186 205 212 200 179 174 150 151 181 163 177 231 261 256 245 238 223 246 257 197 188 198 195 187 184 184 190 191 186 186 182 177 180 183 183 185 188 190 190 189 189 190 193 195 197 198 202 207 209 210 210 210 209 208 210 212 210 216 228 222 217 227 240 243 231 218 215 215 220 238 260 268 269 263 255 253 254
220 223 212 213 172 161 198 226 203 198 210 204 170 168 218 200 164 194 190 181 202 233 243 227 219 202 208 240 163 152 179 180 175 180 183 186 188 184 185 185 180 179 183 184 184 188 191 190 190 190 192 195 197 199 201 204 209 212 212 212 211 211 210 211 211 207 212 224 220 215 225 240 246 237 225 229 220 213 232 258 272 271 261 248 250 270
223 243 197 190 180 173 193 219 216 210 222 183 144 166 225 229 178 161 204 209 206 226 238 212 242 261 208 268 170 130 145 163 170 175 174 175 178 177 180 186 185 180 182 185 186 188 191 191 191 193 194 196 197 199 202 207 212 215 215 213 212 211 210 209 210 205 207 218 217 211 220 233 242 242 235 233 221 216 240 268 272 263 252 249 265 270
201 267 183 168 190 202 191 209 232 218 198 164 156 173 202 254 239 139 215 240 198 218 235 209 235 235 175 248 216 133 140 164 174 161 160 169 173 173 178 185 188 182 181 185 188 189 192 193 193 194 196 198 199 201 204 209 214 216 218 217 214 212 209 207 207 204 206 214 211 208 215 224 232 240 237 234 231 236 259 268 269 272 274 280 277 273
205 249 185 167 187 201 184 201 242 223 193 176 175 175 169 226 239 180 221 219 168 193 276 256 253 225 197 215 176 139 147 164 168 138 138 154 165 171 177 184 186 182 181 184 187 190 194 195 196 196 198 200 202 204 206 209 212 215 217 218 218 216 210 206 206 204 206 211 207 205 210 216 222 229 235 239 234 235 250 258 264 286 304 294 287 284
224 230 230 182 182 179 171 191 227 230 196 177 180 191 176 189 191 175 197 182 152 160 216 292 301 290 259 228 165 155 151 148 144 131 130 148 167 172 174 180 183 181 183 186 188 191 195 197 197 198 199 201 202 204 205 207 209 213 215 216 218 217 211 207 206 205 206 207 204 204 207 209 211 219 228 232 231 234 246 250 233 140 130 316 321 317
227 216 235 193 180 174 170 189 199 202 189 179 195 204 190 197 189 183 214 186 148 146 156 259 313 306 292 281 134 136 129 126 131 134 135 144 160 171 173 175 178 180 184 189 191 193 196 199 200 199 200 201 201 202 203 205 208 210 213 215 216 216 211 207 207 207 206 206 203 203 204 206 207 211 218 223 228 236 240 225 185 154 253 281 305 315
220 195 198 188 183 189 183 182 192 205 204 187 190 190 185 191 175 173 249 236 149 142 166 164 150 280 294 15 91 105 107 114 123 124 140 142 142 163 177 174 174 181 187 190 193 195 196 199 200 199 200 201 201 202 202 203 206 208 211 214 215 214 212 209 209 207 206 205 203 203 203 207 210 211 216 222 225 230 226 204 185 216 265 272 286 297
229 204 191 191 185 191 190 179 185 210 223 206 193 188 191 211 178 155 196 222 198 170 179 144 124 257 285 11 98 103 104 104 100 89 94 134 133 149 175 179 178 186 193 193 194 198 199 201 202 200 200 201 202 203 203 202 204 207 211 212 212 212 212 211 211 208 206 204 202 201 203 209 212 209 212 220 223 222 215 201 198 240 268 269 274 282
229 213 188 200 184 186 201 190 182 196 215 218 209 194 198 226 221 181 163 174 186 185 173 133 126 243 279 269 117 114 109 105 100 87 87 120 129 143 168 179 183 190 198 199 200 204 204 203 203 202 201 203 204 204 203 203 204 206 210 210 209 210 212 211 211 208 204 200 199 201 204 212 216 213 212 218 222 223 217 213 231 264 271 267 262 264
210 202 157 156 165 179 203 217 188 190 201 208 212 202 204 211 206 205 163 122 178 200 161 134 158 232 268 267 110 106 100 99 111 120 124 129 123 132 157 173 184 192 198 202 204 208 208 205 205 205 205 206 207 207 205 204 204 205 209 209 206 207 210 211 209 207 203 197 197 203 207 212 218 223 224 220 221 225 228 238 257 260 262 257 247 246
187 204 166 153 166 175 189 217 200 186 192 198 219 230 227 216 199 191 156 115 197 221 185 140 154 217 246 212 127 122 120 123 138 146 149 144 128 126 151 166 182 192 197 202 205 209 210 210 210 210 210 209 210 210 208 206 205 207 209 208 205 206 208 207 206 206 203 197 198 206 210 213 222 232 225 221 223 227 231 240 246 244 247 253 253 255
162 194 177 154 164 176 186 202 183 165 173 189 204 226 248 257 229 174 157 180 184 190 211 181 155 172 213 195 172 161 150 157 156 136 141 149 150 159 167 167 177 189 197 202 205 209 211 211 213 213 212 211 211 211 211 208 206 207 208 206 204 205 205 204 205 206 203 200 201 210 214 217 230 236 221 216 218 220 223 229 233 233 239 250 257 264
137 173 178 160 167 182 194 216 191 172 182 196 192 205 230 249 251 216 186 198 167 148 222 208 159 160 199 198 185 180 165 165 168 149 151 159 164 176 182 177 178 187 195 199 202 207 209 212 215 215 213 213 212 211 210 208 206 207 208 205 200 201 202 201 203 204 202 200 204 212 221 227 237 240 231 223 220 221 227 231 234 239 246 253 259 262
114 156 180 172 181 197 203 219 215 184 195 222 220 207 208 218 234 236 211 177 147 153 216 211 170 168 190 191 184 185 174 166 166 162 159 156 152 163 180 184 185 191 197 199 203 209 213 215 216 217 216 216 215 213 210 208 207 207 207 202 196 196 200 199 202 203 199 196 201 213 226 233 238 241 238 231 226 228 232 236 242 251 257 261 260 260
111 159 186 164 170 209 217 221 239 229 212 220 238 242 215 207 218 227 229 222 195 193 201 189 184 189 189 183 189 189 168 152 150 149 146 143 137 139 160 178 188 195 199 202 209 216 219 219 219 219 218 216 216 215 211 208 208 209 207 201 196 199 201 199 201 201 194 191 200 216 223 225 232 237 234 230 232 236 236 238 246 256 265 270 269 271
197 223 227 116 100 291 281 264 254 250 247 240 250 266 257 234 235 236 240 243 234 230 203 173 186 216 207 180 178 167 150 141 138 137 138 140 144 146 151 172 198 216 217 218 220 222 223 223 221 220 219 219 219 217 213 211 211 211 207 202 200 201 200 199 200 196 190 191 203 216 216 219 227 230 229 228 232 237 238 239 247 257 264 270 274 280
172 221 342 92 79 308 318 295 256 233 235 252 259 256 247 242 253 263 262 248 234 232 213 176 180 220 218 177 150 140 135 132 126 124 120 112 111 120 116 117 193 272 276 269 250 234 229 226 222 218 219 222 222 219 216 214 210 206 202 199 198 195 194 197 198 192 189 193 202 218 221 221 226 229 227 228 232 236 238 240 247 255 261 267 273 280
147 137 94 102 90 289 287 295 278 235 216 227 238 250 258 276 336 346 324 307 292 254 221 188 181 196 169 131 124 123 119 113 109 106 99 90 88 78 49 0 316 299 286 292 295 268 241 230 226 224 224 227 227 223 217 210 207 209 208 205 201 195 193 194 192 188 186 189 205 244 239 224 226 229 229 230 233 235 237 242 248 255 261 267 272 276
109 103 105 107 105 253 289 298 297 284 228 223 230 24 17 21 21 2 342 355 16 14 51 110 106 107 96 99 110 115 114 111 108 108 102 98 103 83 356 294 285 289 287 287 289 288 268 245 237 235 233 233 231 223 214 209 211 216 214 208 203 196 192 190 188 185 184 192 222 253 240 222 225 230 230 231 233 235 240 246 252 258 263 267 270 273
77 83 76 77 104 89 4 10 324 274 235 251 335 356 28 49 37 357 335 20 57 56 58 69 80 85 81 93 109 113 114 104 98 107 108 99 96 106 259 263 266 273 283 283 275 277 278 262 255 250 240 233 224 217 216 215 215 215 208 199 192 186 185 186 184 181 188 212 241 246 229 223 230 232 230 232 234 237 243 248 253 259 265 266 268 272
72 93 96 83 101 92 40 72 199 256 266 7 8 343 354 41 52 24 350 7 69 84 94 97 107 109 101 109 114 114 112 99 86 82 83 76 357 308 273 259 263 269 277 289 282 270 264 267 274 263 240 224 214 213 217 213 208 200 188 181 179 176 177 183 183 185 206 238 248 235 224 227 234 232 231 234 236 240 245 248 252 257 263 265 266 271
16 42 66 33 45 94 98 167 223 291 308 353 28 356 17 22 42 75 45 303 334 100 134 132 111 94 95 101 96 91 90 89 77 54 46 25 345 338 297 250 244 259 280 308 310 276 270 286 289 255 231 223 218 217 214 205 200 192 182 180 183 183 184 191 197 206 229 244 238 228 227 231 234 232 232 235 237 242 246 247 247 250 256 261 265 271
260 27 66 328 318 81 71 353 333 305 294 290 289 259 131 274 278 102 97 295 323 23 79 124 121 115 114 108 98 89 80 72 61 39 32 17 2 3 340 222 218 244 265 282 311 305 308 321 308 217 221 218 208 200 193 191 194 195 191 189 191 191 195 202 209 219 233 234 228 227 230 234 236 236 237 239 239 241 245 245 243 245 251 258 264 269
182 137 128 166 281 80 66 283 193 244 267 288 320 325 321 289 294 61 44 294 306 353 2 64 119 147 139 120 110 99 82 77 180 100 35 20 7 3 351 221 197 206 234 216 214 316 310 296 275 204 212 211 198 186 183 192 197 193 188 189 195 202 206 210 216 224 226 223 221 226 232 237 238 240 243 241 238 238 241 242 240 242 249 255 260 266
178 109 123 167 171 152 178 226 241 238 235 253 302 329 334 309 302 76 323 268 291 351 23 63 77 96 114 109 103 102 103 136 169 93 46 33 21 17 12 241 200 185 118 117 131 309 286 268 267 204 203 218 216 205 205 216 216 203 196 203 216 218 212 214 223 225 219 217 221 226 233 237 238 241 242 237 236 238 238 237 236 240 247 248 249 257
87 67 80 222 212 172 177 202 234 216 213 303 334 8 19 359 327 175 216 251 328 13 45 64 65 74 91 91 82 78 75 74 68 54 49 39 17 16 19 2 217 206 175 121 292 287 269 260 273 258 217 229 228 214 209 215 215 208 205 219 230 226 220 224 230 223 217 221 225 227 231 235 239 241 238 236 236 236 232 231 232 237 243 243 242 257
127 120 108 20 332 302 234 232 244 258 289 326 350 14 26 19 209 194 211 10 24 34 53 60 58 62 69 66 59 55 49 44 39 33 34 32 18 10 4 353 339 211 206 230 254 259 252 237 230 194 174 199 216 210 205 206 203 195 200 219 225 220 218 220 218 216 219 224 227 229 233 238 240 241 238 236 234 230 227 228 231 236 241 240 246 273
50 105 138 93 71 40 319 313 161 261 280 288 349 2 14 121 204 268 9 36 45 47 53 56 53 50 53 53 49 47 44 41 37 28 21 18 18 14 359 345 335 210 202 219 226 228 222 191 156 142 162 187 194 192 192 190 184 180 194 205 200 198 201 202 206 213 220 226 230 233 235 237 239 239 237 232 227 226 227 228 230 235 236 238 259 290
8 357 108 333 31 126 150 112 151 277 298 22 132 124 89 118 104 37 41 49 51 49 48 50 49 44 43 43 38 35 34 31 28 23 11 1 2 8 4 338 298 225 207 207 196 188 191 179 162 165 178 181 174 179 180 174 170 176 184 183 185 197 203 201 202 211 218 223 228 229 230 233 234 231 229 226 224 224 225 227 230 230 233 255 284 297
269 230 169 202 285 167 138 114 105 1 354 33 92 117 99 85 78 73 70 59 52 52 49 47 45 39 32 30 24 18 14 8 4 3 357 344 334 334 334 290 242 219 203 194 185 191 212 193 169 167 164 148 148 166 174 173 174 178 177 174 178 188 191 188 188 195 203 210 217 221 224 225 225 225 225 223 223 225 227 229 231 236 254 281 294 293
170 143 136 203 300 346 22 14 32 42 21 30 54 78 78 71 69 69 68 59 53 55 55 51 47 37 26 23 18 10 4 358 349 341 333 318 307 309 306 249 226 227 226 202 164 157 167 162 155 154 147 141 155 174 180 180 180 177 172 169 172 176 179 183 194 203 209 217 230 238 237 233 231 231 226 221 223 230 235 237 246 264 283 292 285 274
68 76 87 91 311 343 335 326 343 71 71 49 51 59 60 60 60 60 63 63 59 57 56 55 54 46 37 31 25 19 14 4 351 339 323 301 289 291 272 225 213 220 226 202 162 155 157 150 144 145 145 147 160 172 176 178 180 178 174 172 177 188 205 234 245 242 236 235 244 254 255 250 241 231 223 223 230 242 251 260 269 277 281 275 262 262
51 58 71 69 47 136 166 319 7 71 76 62 58 57 52 53 56 57 60 62 59 55 52 51 54 51 44 39 31 29 28 13 355 343 326 308 299 288 260 228 213 207 200 180 162 160 162 157 154 157 157 154 154 158 162 169 175 177 178 190 228 254 267 271 265 255 246 249 262 266 259 251 244 236 236 241 248 257 268 273 271 266 258 252 255 260
106 81 106 122 37 82 83 355 5 44 52 45 47 49 48 55 58 57 59 60 56 54 50 46 43 42 41 37 25 18 20 10 350 334 322 314 303 277 248 232 221 203 186 175 169 169 172 171 165 160 159 157 156 157 162 175 187 192 204 232 253 258 258 256 252 257 272 279 280 274 261 253 250 247 248 249 252 257 260 256 252 251 248 248 254 260
116 116 135 121 84 96 217 275 284 118 30 17 30 39 43 49 52 54 59 56 48 44 42 39 35 30 29 23 358 341 350 353 342 320 303 294 283 263 247 235 222 201 183 182 185 183 181 179 173 170 171 171 167 163 163 166 169 174 198 226 239 241 239 245 263 277 289 286 274 267 260 250 239 231 230 234 237 238 238 240 243 246 248 253 261 268
96 163 163 135 134 149 142 133 131 131 119 11 18 30 32 27 39 54 53 47 38 30 23 19 15 9 5 359 332 309 311 327 327 300 273 265 255 241 233 227 219 208 196 195 196 191 185 183 183 185 186 185 185 188 178 159 151 172 231 233 230 233 238 258 274 254 222 244 247 246 244 236 224 215 214 223 233 236 238 242 244 245 252 260 267 272
Height
1472 1481 1486 1487 1486 1480 1474 1470 1470 1469 1473 1481 1486 1492 1494 1497 1498 1491 1487 1481 1479 1496 1504 1502 1509 1512 1513 1513 1510 1513 1515 1517 1521 1522 1525 1527 1529 1531 1532 1534 1536 1538 1541 1542 1543 1545 1546 1548 1549 1550 1551 1552 1554 1555 1556 1557 1558 1559 1560 1561 1562 1563 1564 1565 1566 1566 1567 1568 1568 1569 1569 1570 1570 1570 1570 1570 1570 1569 1569 1569 1569 1569 1569 1568 1568 1568
1474 1487 1487 1480 1476 1472 1467 1463 1464 1467 1470 1475 1480 1486 1488 1491 1493 1485 1483 1480 1476 1493 1504 1499 1506 1512 1509 1510 1508 1509 1513 1515 1517 1520 1523 1525 1527 1530 1531 1533 1535 1537 1540 1541 1543 1544 1545 1547 1547 1549 1550 1551 1552 1553 1554 1555 1556 1558 1559 1560 1561 1562 1562 1563 1564 1565 1566 1566 1567 1567 1568 1568 1568 1569 1569 1569 1568 1568 1568 1568 1568 1567 1567 1567 1567 1567
1482 1486 1480 1471 1467 1466 1465 1461 1462 1467 1470 1474 1475 1481 1488 1485 1486 1484 1480 1477 1475 1491 1505 1499 1505 1512 1505 1505 1505 1505 1509 1512 1514 1516 1519 1522 1525 1528 1529 1532 1534 1536 1538 1539 1541 1543 1544 1545 1546 1547 1548 1549 1550 1551 1553 1554 1555 1556 1558 1559 1560 1561 1561 1562 1563 1563 1564 1565 1565 1566 1566 1567 1567 1567 1568 1567 1567 1567 1567 1567 1567 1566 1566 1566 1566 1565
1488 1482 1471 1465 1464 1466 1468 1463 1463 1467 1469 1472 1473 1479 1486 1479 1484 1492 1485 1478 1476 1485 1497 1498 1504 1509 1504 1503 1503 1502 1505 1507 1511 1513 1515 1518 1521 1524 1526 1529 1531 1533 1535 1537 1539 1540 1542 1544 1545 1545 1546 1547 1548 1550 1551 1552 1553 1554 1556 1557 1559 1560 1560 1561 1562 1562 1563 1564 1564 1565 1565 1565 1566 1566 1566 1566 1566 1566 1566 1566 1565 1565 1565 1565 1564 1564
1481 1472 1463 1462 1463 1464 1469 1466 1465 1471 1473 1470 1469 1474 1479 1473 1475 1483 1481 1478 1479 1482 1487 1495 1511 1514 1506 1507 1505 1500 1500 1502 1505 1509 1511 1515 1517 1520 1524 1526 1528 1530 1532 1535 1537 1538 1540 1542 1543 1544 1545 1546 1546 1548 1549 1550 1551 1553 1554 1556 1557 1558 1559 1560 1561 1561 1562 1563 1563 1563 1564 1564 1564 1565 1565 1565 1565 1565 1565 1564 1564 1564 1564 1564 1563 1563
1472 1463 1460 1463 1464 1463 1467 1469 1466 1471 1477 1475 1468 1464 1466 1467 1468 1473 1475 1480 1493 1498 1487 1491 1521 1527 1509 1506 1507 1500 1499 1500 1501 1504 1507 1511 1514 1516 1520 1522 1525 1527 1530 1532 1534 1536 1538 1539 1541 1542 1544 1544 1545 1546 1548 1549 1550 1551 1553 1554 1556 1557 1557 1558 1559 1560 1561 1561 1561 1562 1562 1562 1563 1563 1563 1564 1564 1564 1564 1564 1564 1563 1563 1562 1562 1561
1464 1458 1457 1461 1464 1464 1466 1468 1463 1464 1477 1482 1467 1455 1456 1461 1466 1473 1476 1482 1497 1502 1484 1481 1511 1528 1517 1508 1504 1499 1501 1501 1500 1501 1504 1507 1510 1512 1514 1518 1520 1524 1527 1529 1531 1533 1535 1537 1538 1540 1542 1543 1543 1545 1546 1548 1550 1551 1552 1553 1554 1555 1556 1557 1557 1558 1559 1559 1560 1560 1560 1561 1561 1561 1561 1562 1562 1563 1562 1562 1562 1562 1561 1561 1560 1560
1457 1457 1459 1459 1461 1465 1468 1468 1460 1458 1474 1479 1459 1450 1457 1459 1466 1473 1476 1481 1485 1485 1483 1479 1492 1517 1522 1509 1498 1497 1502 1504 1502 1501 1501 1502 1505 1507 1509 1512 1515 1519 1522 1525 1528 1531 1532 1534 1536 1537 1539 1540 1542 1543 1545 1546 1548 1549 1551 1552 1553 1554 1555 1556 1556 1556 1557 1557 1558 1559 1559 1559 1559 1559 1560 1560 1561 1561 1561 1560 1560 1560 1560 1559 1559 1558
1452 1457 1458 1457 1462 1465 1464 1460 1452 1453 1467 1466 1450 1449 1456 1457 1462 1467 1472 1479 1477 1484 1497 1488 1486 1513 1523 1506 1496 1499 1504 1507 1504 1499 1498 1498 1500 1502 1505 1508 1510 1513 1517 1520 1524 1527 1529 1531 1533 1535 1537 1539 1540 1542 1543 1544 1546 1548 1549 1550 1551 1553 1554 1554 1555 1555 1555 1556 1557 1557 1557 1557 1557 1557 1558 1558 1559 1559 1559 1559 1559 1559 1558 1558 1557 1557
1449 1449 1448 1451 1459 1461 1456 1449 1445 1450 1459 1453 1446 1451 1454 1455 1458 1462 1471 1479 1480 1492 1504 1492 1483 1506 1521 1508 1501 1506 1506 1504 1500 1495 1494 1494 1496 1499 1501 1504 1507 1510 1513 1517 1520 1523 1526 1528 1531 1534 1536 1538 1539 1540 1542 1543 1544 1546 1547 1549 1550 1551 1552 1552 1553 1554 1555 1555 1555 1556 1556 1555 1555 1555 1556 1557 1557 1558 1558 1558 1558 1557 1557 1557 1557 1557
1441 1439 1440 1442 1448 1449 1447 1444 1442 1445 1448 1446 1450 1457 1459 1459 1459 1463 1469 1474 1489 1503 1499 1487 1479 1490 1512 1513 1501 1499 1495 1489 1490 1492 1491 1490 1491 1495 1497 1501 1504 1507 1510 1514 1517 1519 1522 1525 1529 1532 1534 1536 1538 1539 1540 1541 1542 1544 1545 1547 1548 1549 1550 1551 1552 1553 1553 1554 1554 1554 1554 1554 1554 1553 1554 1554 1555 1555 1556 1556 1556 1556 1556 1556 1556 1556
1441 1441 1440 1436 1437 1438 1442 1445 1441 1439 1441 1447 1456 1464 1471 1473 1470 1474 1476 1478 1500 1510 1492 1480 1475 1482 1504 1509 1494 1483 1475 1472 1480 1484 1485 1485 1487 1490 1494 1497 1500 1504 1508 1511 1514 1516 1519 1523 1525 1529 1532 1534 1535 1537 1538 1539 1540 1542 1543 1544 1546 1547 1549 1550 1551 1551 1552 1553 1553 1553 1552 1552 1552 1552 1552 1552 1553 1553 1554 1554 1554 1554 1555 1555 1555 1555
1447 1443 1436 1433 1432 1431 1442 1451 1448 1443 1444 1452 1460 1468 1483 1491 1491 1496 1496 1493 1503 1502 1484 1475 1478 1484 1491 1486 1478 1474 1468 1467 1469 1470 1473 1478 1482 1486 1490 1494 1497 1500 1504 1507 1510 1513 1515 1518 1521 1524 1528 1530 1532 1533 1535 1537 1538 1539 1541 1542 1544 1545 1547 1548 1549 1550 1550 1551 1552 1551 1551 1551 1551 1551 1550 1550 1551 1551 1552 1552 1553 1553 1553 1553 1553 1554
1458 1447 1435 1436 1435 1427 1436 1452 1459 1457 1453 1458 1462 1471 1487 1496 1507 1515 1509 1505 1505 1495 1477 1471 1479 1490 1485 1469 1462 1463 1461 1460 1460 1463 1469 1474 1478 1482 1486 1490 1494 1497 1500 1503 1506 1509 1511 1513 1516 1520 1524 1526 1528 1530 1532 1534 1535 1537 1538 1540 1541 1543 1545 1546 1547 1548 1549 1550 1550 1550 1550 1550 1550 1550 1550 1549 1549 1550 1550 1550 1551 1551 1551 1551 1552 1552
1467 1462 1443 1439 1437 1430 1433 1442 1449 1452 1454 1456 1452 1460 1477 1484 1497 1510 1507 1508 1508 1496 1483 1478 1484 1491 1484 1467 1454 1450 1451 1455 1460 1464 1468 1471 1474 1479 1483 1488 1491 1493 1497 1500 1503 1505 1507 1510 1513 1516 1520 1523 1525 1527 1529 1531 1532 1534 1535 1537 1539 1540 1542 1544 1545 1546 1547 1547 1548 1548 1549 1549 1549 1549 1549 1549 1549 1549 1549 1549 1549 1549 1549 1550 1550 1550
1461 1460 1438 1429 1428 1427 1435 1434 1431 1443 1456 1452 1444 1457 1471 1469 1475 1488 1490 1489 1492 1495 1491 1484 1482 1475 1466 1456 1445 1444 1449 1453 1460 1464 1465 1470 1473 1478 1483 1486 1488 1491 1493 1497 1500 1502 1505 1508 1511 1513 1516 1519 1522 1524 1526 1527 1529 1530 1532 1534 1536 1538 1540 1541 1543 1544 1544 1545 1545 1546 1547 1547 1548 1548 1548 1548 1548 1548 1549 1549 1549 1549 1548 1548 1549 1549
1458 1453 1428 1424 1426 1423 1430 1431 1425 1439 1454 1449 1450 1462 1461 1452 1460 1479 1486 1478 1481 1498 1494 1479 1477 1469 1463 1460 1449 1446 1452 1453 1457 1461 1463 1467 1472 1476 1480 1482 1485 1487 1490 1494 1496 1499 1502 1505 1507 1510 1512 1515 1517 1520 1522 1523 1525 1527 1529 1531 1533 1535 1537 1539 1540 1541 1542 1542 1543 1543 1545 1545 1546 1546 1546 1547 1547 1547 1548 1548 1548 1548 1548 1548 1548 1548
1448 1450 1427 1423 1434 1426 1420 1426 1424 1425 1436 1448 1457 1457 1450 1451 1457 1471 1488 1488 1491 1504 1492 1476 1478 1477 1476 1473 1457 1451 1457 1458 1458 1458 1459 1463 1468 1472 1476 1478 1482 1484 1487 1491 1493 1496 1498 1500 1503 1506 1508 1510 1512 1515 1517 1519 1522 1524 1526 1528 1530 1532 1534 1536 1537 1538 1539 1540 1540 1541 1542 1543 1544 1544 1545 1545 1546 1546 1546 1547 1547 1547 1547 1547 1547 1547
1435 1450 1437 1421 1431 1427 1416 1428 1437 1427 1424 1437 1445 1440 1448 1469 1474 1473 1486 1494 1498 1505 1496 1481 1478 1475 1475 1470 1459 1458 1460 1459 1458 1456 1458 1463 1466 1470 1474 1476 1479 1482 1486 1489 1491 1494 1495 1497 1500 1502 1504 1507 1509 1511 1513 1515 1518 1521 1523 1525 1527 1529 1531 1534 1535 1536 1537 1537 1538 1539 1540 1541 1541 1542 1543 1544 1544 1544 1545 1546 1546 1546 1546 1546 1546 1546
1429 1448 1448 1424 1419 1424 1423 1434 1448 1443 1430 1429 1435 1437 1444 1460 1467 1469 1474 1480 1489 1500 1498 1490 1484 1478 1471 1460 1455 1457 1455 1455 1457 1457 1459 1462 1463 1467 1470 1473 1476 1479 1482 1485 1487 1490 1491 1493 1496 1497 1500 1502 1505 1508 1510 1512 1515 1517 1520 1522 1524 1527 1529 1531 1533 1533 1534 1535 1536 1537 1538 1539 1539 1540 1541 1542 1543 1543 1544 1545 1545 1545 1546 1546 1546 1546
1428 1441 1448 1432 1419 1426 1435 1436 1440 1444 1440 1440 1446 1450 1451 1451 1452 1459 1463 1464 1473 1488 1495 1497 1497 1486 1466 1451 1451 1453 1451 1451 1454 1456 1459 1461 1462 1465 1467 1469 1473 1476 1479 1481 1484 1486 1488 1490 1492 1495 1497 1499 1502 1505 1507 1509 1511 1513 1516 1518 1521 1524 1526 1528 1530 1531 1532 1533 1534 1535 1536 1537 1537 1538 1539 1540 1541 1542 1542 1544 1544 1544 1544 1544 1545 1545
1429 1436 1443 1440 1432 1435 1436 1426 1423 1430 1433 1438 1445 1448 1450 1451 1454 1466 1474 1465 1462 1474 1482 1490 1501 1490 1463 1449 1450 1451 1451 1451 1452 1455 1457 1458 1461 1464 1466 1469 1473 1475 1478 1479 1481 1483 1485 1487 1490 1492 1495 1497 1500 1502 1503 1505 1507 1510 1512 1514 1517 1520 1522 1525 1526 1528 1530 1531 1533 1533 1534 1535 1536 1536 1537 1539 1540 1540 1541 1542 1542 1543 1543 1543 1544 1544
1418 1427 1436 1438 1433 1430 1425 1415 1416 1420 1422 1427 1434 1436 1440 1445 1452 1468 1479 1470 1462 1467 1468 1474 1493 1488 1461 1449 1450 1449 1450 1451 1452 1455 1456 1458 1460 1463 1466 1469 1472 1474 1476 1478 1480 1482 1483 1485 1487 1489 1491 1493 1495 1497 1499 1501 1503 1505 1507 1510 1513 1515 1518 1521 1523 1524 1527 1529 1531 1532 1533 1534 1535 1535 1536 1537 1538 1539 1539 1540 1541 1541 1541 1542 1542 1542
1414 1424 1434 1437 1429 1422 1417 1412 1411 1414 1419 1429 1432 1430 1435 1441 1445 1451 1459 1460 1463 1469 1467 1475 1494 1488 1461 1449 1449 1448 1448 1449 1451 1453 1456 1459 1461 1462 1466 1469 1471 1474 1475 1477 1479 1480 1482 1483 1485 1487 1488 1490 1492 1493 1495 1497 1499 1501 1503 1506 1508 1511 1514 1517 1519 1521 1524 1527 1529 1530 1531 1532 1533 1533 1534 1536 1537 1537 1538 1538 1539 1539 1539 1540 1540 1540
1418 1424 1431 1442 1446 1441 1437 1433 1429 1424 1425 1432 1434 1430 1431 1434 1437 1442 1447 1453 1464 1468 1465 1477 1494 1484 1461 1450 1448 1448 1450 1451 1452 1453 1456 1459 1460 1462 1465 1467 1470 1472 1473 1475 1477 1478 1480 1481 1482 1484 1485 1486 1488 1490 1491 1494 1496 1498 1499 1501 1504 1507 1511 1513 1515 1518 1521 1525 1526 1527 1529 1530 1530 1530 1531 1533 1535 1535 1536 1537 1537 1538 1538 1538 1538 1539
1414 1420 1423 1439 1454 1458 1455 1451 1444 1436 1431 1430 1431 1430 1431 1431 1435 1441 1449 1460 1470 1466 1460 1471 1484 1476 1460 1453 1451 1450 1450 1452 1453 1453 1456 1458 1460 1462 1464 1466 1468 1470 1471 1473 1474 1476 1477 1478 1480 1481 1482 1483 1484 1486 1488 1490 1493 1494 1496 1498 1501 1504 1507 1510 1513 1516 1519 1522 1524 1525 1526 1527 1527 1528 1529 1531 1533 1534 1534 1535 1536 1537 1537 1536 1537 1537
1407 1413 1416 1426 1437 1442 1443 1436 1427 1426 1432 1434 1432 1430 1431 1431 1432 1437 1449 1461 1465 1463 1463 1465 1468 1471 1465 1457 1454 1452 1449 1451 1452 1453 1455 1456 1458 1461 1463 1465 1466 1467 1469 1470 1471 1473 1475 1476 1477 1477 1479 1480 1481 1482 1485 1487 1489 1491 1493 1495 1498 1502 1505 1509 1512 1515 1518 1521 1522 1523 1524 1525 1526 1526 1528 1530 1531 1532 1533 1534 1535 1536 1535 1535 1535 1536
1405 1414 1414 1418 1422 1422 1424 1421 1414 1417 1427 1431 1431 1431 1431 1430 1432 1439 1449 1452 1452 1461 1469 1462 1456 1464 1464 1455 1452 1451 1448 1449 1449 1450 1453 1455 1456 1459 1461 1463 1465 1466 1468 1468 1469 1470 1471 1473 1474 1475 1476 1477 1478 1480 1481 1483 1486 1488 1489 1492 1496 1500 1504 1508 1511 1514 1517 1518 1519 1521 1522 1523 1524 1525 1526 1528 1529 1531 1532 1532 1533 1533 1533 1533 1534 1534
1403 1414 1410 1411 1417 1415 1414 1415 1413 1415 1421 1424 1426 1429 1429 1429 1433 1439 1443 1441 1444 1456 1462 1455 1452 1456 1454 1449 1447 1445 1443 1444 1445 1447 1451 1453 1454 1457 1459 1461 1463 1464 1465 1467 1467 1468 1468 1469 1470 1471 1473 1474 1475 1477 1478 1481 1484 1485 1488 1491 1495 1499 1501 1504 1508 1510 1513 1514 1516 1519 1520 1520 1522 1524 1525 1527 1528 1529 1530 1530 1531 1531 1531 1531 1532 1532
1398 1410 1406 1406 1415 1414 1411 1411 1411 1415 1421 1422 1423 1424 1424 1426 1428 1432 1434 1433 1436 1443 1445 1445 1450 1448 1442 1440 1439 1436 1437 1439 1442 1446 1449 1450 1452 1454 1456 1459 1461 1463 1464 1465 1465 1465 1465 1466 1466 1467 1469 1470 1471 1473 1475 1478 1479 1482 1486 1490 1494 1497 1499 1501 1504 1506 1508 1511 1513 1514 1515 1516 1519 1522 1524 1526 1527 1528 1528 1528 1529 1529 1529 1529 1530 1530
1397 1408 1403 1403 1416 1418 1412 1411 1412 1416 1421 1423 1424 1422 1422 1425 1426 1428 1430 1429 1432 1437 1436 1439 1447 1445 1436 1430 1430 1432 1434 1437 1440 1444 1445 1447 1450 1451 1454 1456 1458 1461 1462 1463 1464 1464 1463 1463 1463 1464 1465 1466 1468 1469 1472 1475 1477 1481 1485 1489 1493 1497 1497 1498 1500 1502 1505 1507 1509 1511 1512 1514 1517 1520 1522 1524 1525 1526 1526 1526 1526 1526 1526 1527 1527 1528
1397 1407 1404 1406 1422 1424 1415 1416 1418 1415 1418 1424 1427 1425 1424 1427 1429 1429 1428 1427 1430 1434 1435 1440 1446 1442 1431 1426 1429 1432 1433 1435 1439 1440 1442 1446 1448 1450 1452 1454 1456 1459 1460 1462 1463 1463 1462 1461 1460 1461 1462 1463 1465 1467 1470 1474 1477 1480 1483 1487 1492 1496 1498 1499 1499 1501 1503 1505 1509 1512 1513 1514 1517 1519 1521 1522 1523 1523 1523 1524 1524 1524 1524 1525 1525 1525
1396 1405 1407 1413 1427 1427 1418 1419 1419 1418 1428 1435 1429 1424 1424 1425 1427 1429 1429 1427 1426 1427 1431 1437 1438 1431 1424 1425 1431 1433 1434 1436 1438 1438 1441 1444 1446 1450 1452 1453 1455 1457 1459 1460 1461 1461 1461 1460 1460 1460 1460 1461 1463 1465 1468 1472 1474 1476 1477 1480 1484 1489 1494 1497 1498 1500 1502 1504 1511 1516 1515 1515 1517 1519 1520 1521 1521 1521 1521 1521 1521 1522 1522 1522 1522 1522
1395 1403 1408 1413 1424 1430 1423 1419 1422 1433 1446 1441 1422 1416 1420 1423 1427 1432 1433 1431 1428 1426 1426 1427 1427 1425 1423 1426 1431 1434 1434 1435 1437 1438 1440 1442 1445 1449 1451 1452 1454 1456 1457 1459 1458 1458 1459 1459 1460 1460 1459 1460 1462 1463 1466 1469 1469 1470 1471 1474 1478 1482 1486 1490 1492 1494 1498 1505 1512 1515 1515 1515 1516 1518 1519 1519 1519 1519 1519 1519 1519 1519 1520 1520 1520 1520
1399 1405 1410 1412 1422 1430 1425 1427 1444 1453 1445 1427 1413 1410 1414 1417 1421 1427 1431 1429 1427 1427 1427 1426 1427 1426 1427 1429 1431 1433 1434 1435 1436 1439 1440 1442 1444 1447 1449 1451 1452 1454 1456 1457 1456 1456 1456 1457 1458 1459 1459 1459 1459 1461 1464 1465 1465 1466 1468 1471 1476 1480 1483 1486 1488 1492 1498 1506 1510 1512 1513 1514 1515 1516 1517 1517 1517 1517 1516 1516 1517 1517 1518 1518 1518 1518
1401 1406 1411 1415 1423 1430 1432 1442 1455 1450 1428 1415 1414 1411 1411 1416 1421 1428 1435 1433 1427 1427 1429 1429 1429 1427 1427 1431 1432 1433 1434 1435 1436 1438 1440 1442 1444 1445 1447 1448 1450 1453 1454 1454 1454 1454 1454 1455 1456 1457 1457 1457 1457 1460 1462 1462 1462 1463 1466 1470 1475 1479 1484 1488 1491 1495 1501 1505 1506 1508 1510 1512 1513 1514 1515 1515 1515 1514 1514 1514 1514 1515 1516 1516 1516 1516
1399 1407 1413 1420 1426 1431 1438 1443 1442 1437 1429 1424 1421 1416 1414 1419 1423 1429 1439 1438 1427 1423 1425 1426 1427 1427 1428 1431 1432 1433 1434 1435 1438 1440 1441 1442 1444 1444 1443 1445 1449 1452 1452 1452 1453 1453 1454 1455 1455 1454 1455 1455 1456 1459 1458 1457 1458 1460 1463 1467 1472 1476 1482 1488 1492 1495 1499 1501 1502 1505 1508 1510 1512 1512 1512 1512 1512 1511 1511 1511 1512 1513 1513 1513 1513 1513
1398 1407 1416 1426 1430 1431 1439 1445 1445 1448 1446 1433 1422 1415 1412 1415 1416 1420 1433 1438 1429 1423 1423 1423 1425 1426 1426 1429 1432 1431 1433 1440 1445 1444 1441 1443 1445 1444 1443 1446 1448 1450 1451 1451 1452 1452 1452 1452 1452 1454 1457 1458 1459 1460 1460 1460 1461 1462 1462 1464 1468 1474 1479 1484 1489 1492 1495 1497 1499 1503 1506 1508 1509 1510 1510 1510 1509 1508 1508 1509 1509 1510 1510 1510 1510 1511
1401 1409 1416 1427 1434 1434 1440 1450 1453 1455 1447 1431 1421 1415 1411 1414 1414 1417 1436 1445 1432 1423 1423 1421 1422 1424 1424 1427 1429 1429 1436 1448 1450 1445 1442 1444 1445 1444 1445 1447 1447 1448 1450 1450 1449 1449 1450 1449 1450 1455 1458 1459 1460 1464 1469 1471 1472 1471 1470 1470 1474 1479 1480 1482 1486 1489 1492 1494 1497 1500 1503 1505 1506 1507 1507 1506 1505 1505 1506 1506 1507 1507 1507 1508 1508 1508
1409 1415 1420 1429 1435 1435 1440 1448 1447 1442 1435 1425 1419 1416 1414 1413 1414 1429 1454 1454 1431 1421 1423 1420 1419 1423 1424 1426 1429 1431 1438 1446 1447 1442 1442 1443 1444 1445 1447 1447 1447 1448 1449 1448 1447 1449 1449 1448 1450 1453 1455 1456 1457 1461 1468 1472 1471 1472 1474 1476 1478 1480 1480 1482 1484 1487 1490 1492 1494 1498 1500 1501 1503 1503 1502 1502 1502 1503 1503 1504 1504 1505 1505 1505 1506 1506
1419 1424 1430 1434 1436 1435 1439 1444 1442 1435 1428 1421 1418 1416 1415 1415 1424 1443 1457 1445 1426 1423 1424 1420 1421 1425 1425 1427 1431 1433 1437 1440 1440 1441 1441 1443 1445 1446 1447 1448 1449 1449 1448 1447 1447 1448 1448 1449 1450 1452 1453 1454 1455 1457 1464 1468 1467 1467 1471 1474 1475 1476 1478 1482 1484 1487 1490 1491 1493 1495 1497 1498 1499 1499 1498 1499 1499 1500 1501 1501 1502 1502 1502 1503 1503 1504
1424 1428 1432 1435 1439 1441 1440 1440 1442 1438 1428 1421 1421 1417 1415 1425 1440 1445 1439 1430 1426 1426 1425 1423 1425 1427 1429 1431 1433 1435 1437 1438 1438 1440 1441 1443 1445 1446 1447 1448 1449 1449 1448 1447 1446 1447 1447 1448 1449 1451 1452 1453 1455 1457 1461 1465 1467 1468 1470 1472 1472 1474 1478 1482 1484 1487 1489 1491 1492 1493 1494 1495 1495 1495 1496 1496 1497 1498 1498 1498 1499 1499 1500 1500 1501 1501
1423 1428 1432 1434 1439 1447 1450 1450 1454 1450 1433 1420 1423 1425 1424 1432 1438 1433 1428 1429 1429 1427 1426 1427 1428 1430 1432 1434 1434 1436 1437 1437 1439 1440 1441 1443 1444 1445 1446 1447 1447 1447 1447 1446 1446 1446 1446 1448 1449 1450 1451 1452 1454 1457 1460 1463 1466 1468 1469 1470 1472 1475 1478 1480 1483 1485 1487 1489 1490 1491 1492 1493 1493 1493 1494 1494 1494 1495 1495 1496 1497 1498 1498 1498 1499 1499
1428 1431 1437 1437 1438 1447 1456 1457 1456 1450 1434 1422 1424 1429 1429 1430 1429 1428 1430 1433 1431 1428 1428 1429 1430 1432 1434 1434 1436 1437 1437 1437 1439 1440 1441 1443 1444 1445 1447 1447 1447 1447 1446 1446 1446 1446 1446 1448 1448 1449 1451 1452 1454 1458 1461 1463 1465 1466 1468 1470 1473 1476 1478 1479 1481 1483 1485 1486 1487 1488 1489 1490 1491 1491 1492 1492 1492 1493 1493 1493 1494 1495 1495 1495 1496 1496
1434 1432 1435 1439 1436 1437 1443 1445 1443 1440 1433 1426 1425 1426 1427 1428 1429 1431 1433 1434 1433 1432 1430 1430 1433 1434 1435 1436 1437 1438 1438 1438 1440 1441 1442 1444 1444 1445 1446 1447 1447 1447 1446 1445 1446 1446 1446 1446 1447 1449 1451 1452 1454 1458 1461 1463 1465 1466 1468 1471 1473 1476 1477 1479 1480 1482 1483 1484 1485 1486 1487 1488 1488 1489 1490 1490 1490 1490 1490 1490 1491 1491 1492 1492 1493 1493
1427 1424 1428 1436 1437 1434 1435 1436 1436 1437 1435 1430 1428 1430 1430 1430 1431 1432 1432 1434 1435 1434 1433 1434 1436 1436 1436 1437 1438 1438 1439 1440 1441 1442 1443 1444 1445 1445 1446 1446 1447 1447 1446 1445 1445 1446 1446 1446 1447 1449 1451 1452 1455 1457 1460 1463 1466 1467 1469 1471 1473 1475 1476 1478 1479 1480 1481 1482 1484 1485 1485 1486 1486 1487 1487 1486 1486 1486 1487 1488 1488 1489 1489 1489 1489 1490
1423 1423 1429 1437 1444 1449 1450 1443 1436 1436 1436 1433 1432 1433 1433 1433 1434 1434 1435 1436 1436 1437 1437 1438 1438 1439 1439 1440 1440 1441 1442 1441 1442 1443 1444 1444 1445 1446 1445 1446 1446 1446 1446 1446 1445 1446 1446 1446 1448 1450 1451 1453 1455 1457 1458 1461 1463 1465 1466 1469 1471 1473 1474 1476 1478 1478 1478 1480 1482 1482 1482 1483 1483 1484 1483 1483 1483 1484 1484 1485 1485 1486 1486 1486 1487 1487
1425 1426 1432 1438 1442 1450 1453 1446 1436 1436 1437 1435 1435 1436 1436 1437 1437 1436 1436 1437 1438 1439 1439 1439 1440 1441 1441 1442 1443 1444 1444 1444 1444 1444 1444 1445 1445 1445 1445 1445 1445 1445 1446 1446 1446 1446 1446 1446 1447 1448 1450 1453 1456 1458 1459 1461 1462 1463 1464 1466 1468 1470 1472 1475 1477 1477 1477 1478 1479 1479 1479 1479 1480 1480 1480 1481 1481 1482 1482 1482 1482 1483 1484 1485 1485 1485
1424 1429 1435 1439 1441 1443 1446 1443 1438 1439 1439 1437 1438 1439 1439 1439 1440 1439 1440 1440 1440 1440 1440 1440 1441 1442 1442 1443 1444 1444 1444 1445 1444 1444 1445 1445 1445 1445 1445 1445 1445 1445 1445 1446 1446 1446 1446 1447 1448 1449 1451 1454 1456 1458 1460 1461 1462 1463 1463 1464 1466 1469 1471 1473 1475 1475 1475 1475 1475 1476 1476 1476 1477 1477 1478 1478 1479 1480 1480 1480 1481 1482 1482 1483 1484 1483
1425 1432 1436 1438 1443 1446 1445 1442 1441 1443 1444 1443 1442 1442 1442 1441 1442 1442 1442 1442 1442 1442 1442 1442 1443 1443 1444 1444 1444 1444 1445 1445 1445 1445 1445 1445 1445 1445 1444 1444 1444 1444 1445 1445 1446 1446 1446 1447 1449 1450 1452 1454 1455 1456 1457 1459 1460 1462 1463 1465 1467 1469 1470 1471 1471 1472 1472 1472 1472 1473 1474 1474 1475 1475 1476 1477 1477 1478 1478 1479 1479 1480 1480 1481 1481 1481
1425 1430 1432 1434 1439 1442 1440 1438 1439 1442 1444 1444 1444 1444 1444 1443 1443 1444 1443 1442 1442 1443 1443 1444 1444 1444 1444 1445 1444 1444 1444 1444 1445 1445 1444 1444 1445 1444 1443 1443 1443 1443 1444 1445 1446 1446 1446 1448 1449 1450 1452 1453 1454 1454 1455 1457 1459 1462 1466 1467 1467 1467 1468 1468 1468 1469 1469 1469 1470 1470 1471 1472 1473 1473 1474 1475 1475 1476 1476 1477 1477 1478 1478 1478 1478 1478